Location: Andershausen
(51.8462°N, 9.8595°E)
Time: 12:26:40
(UTC+00:00)

Resurs 1-3 - Pass Details

Date: 18 November 2025
Orbit: 613 x 615 km, 97.7° (Epoch: 10 December)

Event Time Altitude Azimuth Distance (km) Brightness Sun altitude
Rises 16:57:08 0° 142° (SE) 2,876 6.7 -13.8°
Reaches altitude 10° 16:59:25 10° 134° (SE) 1,975 5.8 -14.2°
Maximum altitude 17:03:23 37° 67° (ENE) 957 4.0 -14.8°
Drops below altitude 10° 17:07:22 10° 360° (N) 1,988 6.0 -15.4°
Sets 17:09:40 0° 352° (N) 2,897 7.0 -15.7°
